Location: Red Deer
(52.2681°N, 113.8112°W)
Time: 04:41:25
(UTC-07:00)

ISS - Visible Passes

Search period start: 29 November 2022 00:00
Search period end: 09 December 2022 00:00
Orbit: 411 x 420 km, 51.6° (Epoch: 29 November)

Date Brightness Start Highest point End Pass type
(mag) Time Alt. Az. Time Alt. Az. Time Alt. Az.
29 Nov -3.8 17:34:06 10° W 17:37:27 82° S 17:40:12 14° E visible
29 Nov -2.2 19:10:49 10° W 19:13:06 36° WSW 19:13:06 36° WSW visible
30 Nov -3.5 18:22:05 10° W 18:25:24 63° SSW 18:26:25 39° SE visible
30 Nov -0.3 19:59:06 10° W 19:59:18 11° W 19:59:18 11° W visible
01 Dec -3.6 17:33:20 10° W 17:36:40 74° S 17:39:47 11° ESE visible
01 Dec -2.0 19:10:10 10° W 19:12:41 29° SW 19:12:41 29° SW visible
02 Dec -2.7 18:21:18 10° W 18:24:28 40° SSW 18:26:09 22° SE visible
03 Dec -3.1 17:32:28 10° W 17:35:43 53° SSW 17:38:58 10° ESE visible
03 Dec -1.2 19:09:45 10° WSW 19:11:56 16° SW 19:12:39 15° SSW visible
04 Dec -1.5 18:20:34 10° W 18:23:17 23° SSW 18:25:58 10° SSE visible
05 Dec -2.0 17:31:33 10° W 17:34:33 32° SSW 17:37:33 10° SE visible
06 Dec -0.6 18:20:27 10° WSW 18:21:50 12° SW 18:23:14 10° SSW visible
07 Dec -0.8 17:30:50 10° W 17:33:09 18° SW 17:35:28 10° S visible
